Location: Opava
(49.9500°N, 17.9170°E)
Time: 13:34:16
(UTC+02:00)

ISS - Visible Passes

Search period start: 20 April 2024 00:00
Search period end: 30 April 2024 00:00
Orbit: 412 x 418 km, 51.6° (Epoch: 20 April)

Date Brightness Start Highest point End Pass type
(mag) Time Alt. Az. Time Alt. Az. Time Alt. Az.
21 Apr -0.9 04:48:16 10° SSE 04:49:00 11° SE 04:49:44 10° ESE visible
23 Apr -1.9 04:44:48 10° SSW 04:47:28 22° SE 04:50:09 10° E visible
24 Apr -1.4 03:57:12 12° SSE 03:58:40 15° SE 04:00:40 10° ESE visible
25 Apr -3.1 04:42:52 11° SW 04:45:54 44° SSE 04:49:06 10° ENE visible
26 Apr -2.5 03:55:35 22° S 03:56:55 30° SSE 03:59:53 10° E visible
27 Apr -1.9 03:08:12 20° SE 03:08:12 20° SE 03:10:28 10° E visible
27 Apr -3.8 04:41:03 11° WSW 04:44:16 79° SSE 04:47:36 10° ENE visible
28 Apr -3.6 03:53:34 28° SW 03:55:06 58° SSE 03:58:23 10° ENE visible
29 Apr -3.1 03:06:01 40° SE 03:06:01 40° SE 03:09:05 10° E visible
29 Apr -3.6 04:39:11 10° W 04:42:31 72° N 04:45:52 10° ENE visible
